Weather in Demidovo

Russia / Vladimir Oblast     55°23′56″N   40°18′01″E
temp.,
°C
wind,
m/s
gust,
m/s
humid.,
%
clouds,
%
prec.,
mm/h
press.,
hPa
HPBL,
m
2 march, tue
tue200:00+1w51293100 0.0 1013784
03:00+1wsw51293100 0.0 1010646
06:00+1w51294100 0.0 1007710
09:00+1wnw51192100 0.2 1007830
12:00+1nw5109093 0.2 10061061
15:00+1nw5108572 0.4 10061119
18:00−1wnw4118690 0.1 1006717
21:00−2nw4109695 0.3 1008788
3 march, wed
wed300:00−3nw41191100 0.3 1009791
03:00−5nw4138878 0.3 1011733
06:00−7nw5129079 0.0 1012752
09:00−6nw5118690 0.1 1014698
12:00−2nw597826 0.0 1013976
15:00−1wnw598863 0.2 1013946
18:00−2wnw41095100 0.3 1012725
21:00−2w4109599 0.4 1013745
4 march, thu
thu400:00−4w3119597 0.1 1011479
03:00−3wsw4119296 0.1 1009573
06:00−2sw61394100 0.2 1005677
09:000wsw61385100 0.2 1002949
12:00+1wsw61384100 0.0 9991136
15:000wsw61389100 0.1 9981237
18:000wsw61289100 0.0 9971019
21:00−1nw41085100 0.6 999696
5 march, fri
fri500:00−5wnw3889100 0.0 1000258
03:00−8wnw269484 0.0 1003136
06:00−10nw229624 0.0 100540
09:00−8nw139212 0.0 1007171
12:00−4nnw127929 0.0 1007610
15:00−3nw117563 0.0 1008767
18:00−5n0086100 0.0 100821
21:00−7ne1295100 0.1 100924
6 march, sat
sat600:00−9ne1295100 0.0 100921
03:00−10n129682 0.0 100924
06:00−11nnw229790 0.1 100959
09:00−10nw259160 0.1 1009247
12:00−6wnw368278 0.0 1009776
15:00−5nw467789 0.3 10101096
18:00−8wnw2387100 0.3 101077
21:00−11w229190 0.3 101146